sat.trackr.live / text

‹ back to catalog

SAUDISAT 1C (SO-50)

NORAD 27607 · 2002-058C

PAYLOAD ACTIVE UNKNOWN

§ Identity

Operator
Country
SAUD
Launch date
2002-12-20
Launch site
TYMSC
Launch vehicle
Mass (kg)
RCS (m²)
0.09

Purposes: comms, tech_demo

External: N2YO · Heavens-Above · Gunter

§ Orbital elements

Epoch: 2026-05-25T03:51:04.061088Z

Period
97.10 min
Inclination
64.5514°
Eccentricity
0.0075587
Mean motion
14.82990548 rev/d
Perigee alt
567.0 km
Apogee alt
672.8 km
Semi-major
6,998.0 km
B*
1.0770e-4
RAAN
200.2269°
Arg perigee
266.6862°
Mean anomaly
92.5595°
Rev number
26,104

§ Raw data

SAUDISAT 1C (SO-50)1 27607U 02058C   26145.16046367  .00000764  00000+0  10770-3 0  99922 27607  64.5514 200.2269 0075587 266.6862  92.5595 14.82990548261046

JSON: /api/v1/satellites/27607 · /tle

For live sub-satellite position, see the globe view (requires WebGL).

§ Visibility from observer

Set your observer location to see the next 7 days of passes ≥ 10°. The values pass through the URL so the page stays shareable.

No JS? Fill the form by hand. The geolocation button needs JavaScript.

§ Radio — SatNOGS DB

ModeDescriptionDownlinkUplink
FM Mode V TLM 149.025 MHz
FM Mode V/U FM Voice CTCSS 67.0 Hz 436.795 MHz 145.850 MHz

2 transmitters · refreshed weekly from db.satnogs.org